Wind_Speed
2 2 2 2 3 3 3 2 2 1 2 2 2 1 0 1 1 2 2 3 3 4 5 5 6 7 8 9 9 10 10 11 12 12 13 13 14 15 15 16 17 17 18 18 19 19 19 20 20
1 1 2 2 2 3 3 2 2 2 2 2 1 1 1 1 1 2 2 3 4 4 5 6 7 8 8 9 10 11 11 12 13 13 14 14 15 16 16 17 17 18 18 19 19 19 20 21 22
1 1 1 1 1 2 1 1 2 1 1 1 1 1 1 1 2 2 3 4 4 5 6 7 8 8 9 10 10 11 12 12 13 14 15 16 16 17 18 19 19 20 20 20 21 21 22 22 23
3 3 2 2 1 0 0 1 0 0 0 1 1 2 2 3 3 3 4 4 5 6 7 8 8 9 10 11 11 12 13 14 14 15 16 17 18 19 19 20 20 21 21 21 22 22 22 22 23
5 5 4 3 2 2 2 2 2 1 1 2 2 2 3 4 4 4 5 6 7 7 8 9 9 10 10 11 12 13 14 14 15 16 16 17 18 18 19 19 20 20 21 21 22 23 23 23 23
8 7 6 5 4 4 4 4 3 3 3 3 3 3 4 5 5 6 6 7 8 8 9 10 10 11 11 12 13 14 14 15 16 16 17 17 18 18 19 19 20 20 21 22 22 23 23 24 24
11 10 9 8 7 6 6 6 5 4 4 4 5 5 5 6 7 7 8 8 9 9 10 10 11 12 12 12 13 14 15 15 16 17 17 18 18 19 20 20 21 21 22 22 23 23 24 25 25
14 13 11 10 9 8 7 8 7 6 6 6 6 7 7 8 8 8 9 9 10 11 11 11 12 13 13 14 14 15 15 16 17 17 18 18 19 19 20 21 21 22 22 23 23 24 24 25 26
17 16 14 13 12 10 10 10 9 9 8 8 8 8 9 9 10 10 11 11 12 12 13 13 14 14 15 15 15 16 17 17 18 18 19 19 20 20 21 22 22 23 23 23 24 25 25 26 26
19 18 16 15 14 13 12 12 12 11 10 10 10 10 10 11 12 12 13 13 14 14 15 15 16 16 16 16 17 17 18 18 19 20 20 21 21 22 22 23 23 23 24 24 25 26 26 26 27
21 20 19 18 17 16 14 14 14 13 13 12 12 12 12 13 14 14 15 15 16 16 17 17 17 18 18 18 18 19 19 20 21 21 22 22 23 23 24 24 24 25 25 25 26 26 27 27 28
24 22 21 20 19 18 17 16 16 16 15 15 14 14 14 14 15 16 16 17 18 18 18 19 19 19 19 20 20 20 21 21 22 22 23 23 24 25 25 25 26 26 26 27 27 27 28 28 29
26 25 24 23 22 20 19 18 18 18 18 17 16 16 16 16 16 17 18 18 19 20 20 20 20 21 21 21 21 21 22 23 23 23 24 25 26 26 27 27 27 28 28 28 28 29 29 30 30
28 28 27 25 24 23 22 20 20 20 20 19 19 18 18 18 18 18 19 19 20 21 21 21 22 22 22 22 23 23 23 24 24 25 25 26 27 27 28 28 29 29 29 29 30 30 30 31 31
31 30 29 28 26 25 24 23 22 22 22 22 21 21 21 20 20 20 20 21 21 22 22 23 23 23 23 23 24 25 25 25 26 26 27 27 28 29 29 29 30 30 31 31 31 32 32 32 32
34 33 31 30 28 27 27 25 24 24 24 24 24 23 23 22 21 22 22 22 22 23 23 23 24 24 25 25 26 26 27 27 27 28 28 29 29 30 31 31 31 31 32 32 33 33 33 33 33
36 34 33 31 30 29 29 27 27 26 26 26 26 25 24 24 23 23 24 24 24 24 24 24 25 25 26 27 27 28 28 29 29 29 30 30 31 31 32 32 32 33 33 33 34 34 34 34 35
37 36 34 33 32 31 30 29 29 29 27 27 27 27 26 25 25 25 25 25 25 25 26 26 26 27 27 28 29 29 30 30 30 31 31 32 32 33 33 33 34 34 34 35 35 35 35 36 36
38 37 36 35 34 33 32 31 31 30 29 28 28 27 27 26 26 26 26 26 27 27 27 27 27 27 28 29 30 30 30 31 31 32 32 33 33 34 34 34 35 35 35 36 36 36 37 37 38
39 38 37 37 36 35 34 33 32 31 30 29 29 28 27 27 27 27 27 27 28 28 28 28 28 29 29 30 30 30 31 31 32 32 32 33 34 34 35 35 35 36 36 37 37 37 38 38 39
39 38 37 38 37 37 36 34 33 31 30 29 29 29 29 28 28 28 28 29 29 28 29 29 29 30 30 30 31 31 32 32 33 33 33 34 35 35 35 36 36 37 37 38 38 39 39 40 41
40 38 38 38 38 37 37 36 33 32 31 30 29 29 28 28 29 29 29 30 30 29 30 30 30 30 30 31 31 32 32 32 33 34 34 35 35 35 36 37 38 38 39 39 40 40 41 42 42
40 39 39 39 39 38 37 38 33 33 32 31 30 29 29 29 30 30 30 30 30 30 30 30 30 31 31 31 31 32 32 33 34 34 35 36 36 37 38 39 39 40 40 41 41 42 42 43 44
41 40 39 39 39 39 36 38 35 33 32 31 30 30 30 30 30 30 30 30 30 30 30 30 30 31 31 31 32 32 33 34 35 36 36 37 37 38 39 39 40 41 41 42 42 43 43 44 45
41 40 40 40 40 40 36 38 36 32 31 31 30 30 30 30 30 30 29 29 29 29 30 30 31 31 32 32 33 33 34 35 36 37 37 37 38 39 39 40 41 42 42 43 43 44 44 45 46
41 41 41 41 40 39 38 38 34 31 30 30 30 30 30 30 30 29 29 30 30 30 30 31 32 32 33 33 33 34 35 36 36 37 38 38 39 40 41 41 42 42 43 44 44 45 46 47 48
42 42 41 42 42 41 39 36 32 30 30 30 30 30 31 31 30 30 30 31 31 31 31 31 32 32 33 33 34 35 36 36 37 37 38 38 39 40 41 42 42 42 44 45 46 46 47 48 49
42 42 41 42 42 42 40 36 31 29 30 31 31 31 31 31 30 30 30 30 31 31 31 32 32 33 33 34 35 35 36 36 37 38 38 39 40 41 42 42 42 43 44 45 46 47 48 49 50
43 42 42 42 43 42 40 35 30 30 30 30 31 31 31 31 30 30 30 31 31 31 32 32 33 33 34 35 35 36 36 37 38 38 39 40 41 41 42 43 43 44 44 45 47 47 49 50 51
44 43 43 43 43 41 40 35 31 31 31 31 31 30 30 30 30 30 31 31 31 31 32 33 34 34 35 35 36 36 37 38 38 39 40 41 41 42 43 43 44 44 45 46 47 48 50 51 51
Wind_Direction
123 115 103 97 93 99 100 105 108 104 114 124 130 124 66 339 309 286 300 298 296 292 290 292 293 294 295 294 295 296 299 301 302 302 302 303 302 300 299 297 296 294 293 292 291 290 289 288 287
150 137 119 107 94 87 91 96 94 93 99 105 108 94 56 33 1 336 322 315 310 308 303 299 297 296 297 297 297 298 298 300 301 301 302 302 301 300 300 299 298 296 295 294 293 292 290 289 288
208 194 166 136 103 81 82 83 92 89 78 70 40 7 354 348 343 337 328 321 315 313 309 304 300 298 298 298 299 299 299 300 301 301 302 302 301 300 299 298 297 296 295 294 293 292 291 290 288
231 228 221 216 186 48 319 346 54 86 346 326 323 328 319 321 322 323 320 318 316 314 311 307 303 300 300 301 302 301 301 301 301 301 301 301 301 300 299 298 297 296 296 295 294 293 292 291 289
240 239 232 231 243 260 272 275 273 255 270 283 292 301 304 308 311 316 317 316 315 313 311 308 306 303 301 301 302 303 303 304 304 303 302 301 301 301 301 300 299 298 296 295 294 294 293 291 290
243 245 244 243 249 258 267 269 267 266 270 274 284 291 296 301 304 309 309 309 311 311 309 307 307 305 303 303 303 303 304 304 304 305 305 304 303 303 301 301 300 299 298 296 295 294 293 292 291
246 246 247 249 250 256 264 266 263 264 273 278 285 290 293 294 297 301 304 306 308 309 308 307 307 306 306 305 304 303 304 305 306 306 305 305 305 303 302 301 301 300 299 297 296 295 294 293 292
247 247 247 250 252 256 262 265 264 265 268 273 280 284 287 289 292 296 300 303 306 307 307 307 307 306 307 306 305 303 304 305 306 305 305 304 304 304 303 302 301 300 299 298 297 296 295 294 293
247 247 248 251 254 256 260 264 265 266 270 274 279 281 284 286 289 292 296 300 302 303 304 304 303 303 304 304 304 303 302 303 304 304 304 304 304 303 302 302 301 300 300 299 298 297 296 295 294
247 248 250 252 254 255 258 262 264 268 270 273 277 281 283 285 288 290 292 295 298 299 300 301 301 301 302 302 302 302 302 302 303 303 303 303 302 302 302 301 300 300 299 299 298 297 296 296 295
248 249 250 251 253 255 256 260 264 268 271 273 277 281 282 284 284 286 289 291 294 295 297 298 298 299 300 301 301 301 301 302 302 302 302 301 300 300 299 299 299 298 298 297 297 297 296 296 295
248 249 250 251 252 254 255 258 263 267 270 274 277 280 280 282 283 284 287 289 291 292 294 294 295 297 298 298 300 300 300 300 300 300 300 300 299 299 299 298 298 298 297 297 297 297 296 295 295
247 249 250 251 252 254 255 256 260 266 270 273 276 279 281 281 281 282 284 286 288 290 291 292 293 295 295 296 298 299 299 299 299 299 299 299 298 298 298 298 298 298 297 297 297 297 296 296 295
247 248 249 251 253 254 256 257 260 264 269 272 274 278 280 280 280 280 282 285 286 287 289 290 291 292 293 295 296 297 298 298 297 297 297 297 297 298 298 298 298 297 296 296 296 297 296 296 295
247 248 249 250 252 254 257 258 260 263 267 270 273 276 279 279 280 281 282 284 285 287 288 289 289 290 292 293 295 296 296 296 296 296 296 296 296 296 297 297 296 296 296 296 296 296 296 295 295
247 248 249 250 253 254 257 258 260 262 265 268 272 275 277 278 279 280 281 283 284 285 287 287 288 290 291 292 293 294 295 295 295 295 295 295 295 295 296 295 295 295 295 295 296 296 296 295 294
247 248 249 250 252 255 256 258 261 262 264 267 270 273 275 277 277 278 280 282 283 284 286 286 288 289 290 291 292 293 293 293 293 294 294 294 294 295 295 295 295 295 295 295 296 296 296 295 295
247 249 250 251 252 254 256 257 260 262 264 266 269 271 273 275 276 278 280 281 283 284 285 286 287 288 289 290 292 293 293 292 292 293 293 294 295 295 294 294 295 295 295 295 295 295 296 295 295
247 248 249 250 252 253 255 256 259 262 263 265 267 270 272 274 276 277 279 280 281 283 284 285 286 287 288 290 291 292 292 292 292 292 293 294 295 295 295 294 294 295 295 296 296 296 296 295 295
245 247 248 250 251 253 254 256 258 261 263 264 266 269 271 273 275 277 278 280 281 282 284 285 285 287 289 290 291 291 291 292 292 293 293 294 294 294 295 295 295 295 295 296 296 296 296 296 296
245 247 248 249 251 254 255 255 257 259 261 263 265 267 270 273 275 277 278 280 281 281 282 284 285 287 288 290 291 291 291 292 292 292 293 293 294 294 295 295 295 295 295 296 296 296 296 296 296
244 246 247 249 251 253 255 255 254 258 260 262 264 267 270 272 274 277 278 280 280 281 282 283 285 286 288 289 291 291 291 291 292 292 293 294 294 295 295 295 295 295 295 296 296 296 296 296 296
244 245 247 248 251 253 254 257 253 256 259 261 264 267 269 272 275 277 278 279 279 280 282 283 284 286 288 289 290 291 291 291 292 293 294 294 294 294 294 294 295 295 296 296 297 297 296 296 297
242 243 246 249 252 253 253 258 256 255 258 261 264 267 269 271 274 276 277 278 279 280 281 282 284 285 287 289 290 291 291 292 292 293 293 294 295 295 295 295 295 296 296 297 297 297 297 297 297
241 242 246 249 251 253 252 255 257 256 258 260 263 266 268 270 273 275 275 277 278 279 281 282 284 286 288 289 290 291 292 293 293 293 294 294 295 295 294 295 295 296 296 297 297 297 297 297 297
241 242 245 249 251 253 252 254 256 258 258 259 262 265 267 270 271 272 274 276 278 279 281 283 285 286 288 289 290 291 292 293 294 294 295 295 295 295 295 296 296 296 296 297 297 297 297 297 297
239 241 244 248 251 253 253 254 254 257 259 260 262 264 266 269 270 271 273 276 277 279 281 283 285 287 288 289 290 291 293 294 294 295 295 295 295 295 296 296 297 297 297 297 297 297 297 297 297
239 240 242 245 249 252 254 254 254 255 259 261 262 264 266 268 269 271 274 276 277 279 281 283 285 287 288 289 290 292 293 294 294 295 295 295 295 295 295 296 296 296 296 297 297 297 297 297 297
238 239 241 245 248 252 255 254 255 257 259 262 263 264 265 266 268 270 273 275 278 280 282 283 285 286 288 289 290 291 292 293 294 295 295 295 295 295 296 296 297 297 297 297 297 297 297 298 298
238 240 241 244 247 251 255 254 255 258 259 261 263 264 265 266 267 269 272 275 278 281 282 283 285 286 287 288 290 291 292 293 294 295 295 295 295 295 296 296 297 297 298 298 298 298 299 299 298
Height
5860 5861 5862 5863 5864 5864 5864 5864 5864 5864 5864 5864 5864 5864 5864 5865 5865 5867 5865 5863 5863 5863 5863 5863 5863 5863 5863 5863 5862 5862 5861 5861 5860 5859 5859 5858 5858 5857 5857 5856 5855 5855 5854 5853 5853 5852 5851 5850 5850
5860 5861 5862 5863 5863 5864 5864 5864 5864 5864 5864 5864 5863 5863 5863 5863 5864 5864 5863 5862 5862 5862 5862 5862 5862 5862 5861 5861 5860 5860 5859 5859 5858 5857 5856 5856 5855 5854 5854 5853 5852 5852 5851 5850 5849 5848 5847 5847 5846
5860 5861 5862 5863 5863 5864 5864 5864 5864 5864 5863 5863 5863 5863 5863 5863 5863 5863 5862 5862 5862 5861 5861 5860 5860 5860 5860 5859 5858 5858 5857 5856 5856 5855 5854 5853 5852 5852 5851 5850 5849 5848 5847 5846 5845 5844 5843 5842 5841
5860 5861 5862 5863 5863 5863 5863 5864 5863 5863 5863 5863 5863 5863 5862 5862 5862 5862 5861 5861 5861 5860 5859 5859 5859 5858 5858 5857 5856 5855 5855 5854 5853 5852 5851 5850 5849 5848 5847 5846 5845 5844 5843 5842 5841 5840 5839 5838 5837
5858 5859 5861 5861 5862 5862 5862 5863 5863 5863 5863 5863 5862 5862 5862 5862 5861 5861 5860 5860 5859 5859 5858 5858 5857 5856 5856 5855 5854 5853 5852 5851 5850 5849 5848 5847 5846 5845 5844 5843 5842 5841 5840 5839 5837 5836 5835 5834 5833
5857 5858 5859 5860 5861 5861 5861 5861 5862 5862 5862 5862 5861 5861 5861 5861 5860 5860 5859 5859 5858 5858 5857 5856 5855 5854 5853 5852 5851 5850 5849 5849 5847 5846 5845 5844 5843 5842 5841 5839 5838 5837 5836 5834 5833 5832 5831 5829 5828
5855 5856 5857 5858 5859 5859 5860 5860 5860 5860 5860 5860 5860 5860 5859 5859 5859 5858 5858 5857 5857 5856 5855 5854 5853 5852 5851 5850 5849 5848 5847 5846 5845 5843 5842 5841 5840 5838 5837 5836 5834 5833 5832 5830 5829 5827 5826 5825 5823
5851 5853 5854 5855 5856 5857 5858 5858 5858 5859 5859 5859 5859 5859 5858 5858 5857 5856 5856 5855 5855 5854 5853 5852 5851 5850 5849 5848 5847 5845 5844 5843 5842 5840 5839 5838 5836 5835 5833 5832 5830 5829 5827 5826 5824 5823 5821 5820 5818
5848 5850 5851 5853 5853 5855 5855 5855 5856 5856 5857 5857 5857 5857 5856 5855 5855 5854 5854 5853 5852 5852 5851 5850 5849 5848 5847 5845 5844 5842 5841 5840 5839 5837 5836 5834 5833 5831 5830 5828 5826 5825 5823 5822 5820 5818 5817 5815 5813
5844 5846 5848 5849 5850 5851 5852 5852 5853 5854 5854 5854 5854 5854 5854 5853 5852 5852 5851 5851 5850 5849 5848 5847 5846 5845 5844 5842 5841 5839 5838 5837 5835 5834 5832 5831 5829 5827 5826 5824 5822 5820 5819 5817 5815 5813 5812 5810 5808
5839 5842 5844 5845 5846 5847 5848 5849 5849 5850 5851 5851 5851 5851 5851 5850 5850 5849 5848 5848 5847 5846 5845 5844 5843 5842 5841 5839 5838 5836 5835 5833 5832 5830 5828 5827 5825 5823 5821 5820 5818 5816 5814 5812 5810 5808 5806 5805 5803
5835 5837 5838 5840 5841 5843 5844 5845 5845 5846 5847 5848 5848 5848 5847 5847 5846 5846 5845 5844 5843 5842 5841 5840 5839 5838 5837 5835 5834 5832 5831 5829 5828 5826 5824 5822 5821 5819 5817 5815 5813 5811 5809 5807 5805 5803 5801 5799 5797
5830 5832 5833 5835 5836 5838 5839 5840 5841 5842 5843 5843 5843 5844 5844 5843 5843 5842 5841 5841 5840 5839 5838 5836 5835 5834 5833 5831 5830 5828 5827 5825 5823 5822 5820 5818 5816 5814 5812 5810 5808 5806 5804 5802 5800 5797 5795 5793 5791
5825 5826 5828 5829 5831 5833 5835 5836 5837 5838 5838 5839 5839 5839 5839 5839 5839 5838 5838 5837 5836 5835 5834 5832 5831 5830 5828 5827 5825 5824 5822 5820 5819 5817 5815 5813 5811 5809 5807 5805 5802 5800 5798 5796 5794 5791 5789 5787 5785
5818 5820 5822 5824 5826 5828 5829 5831 5832 5833 5833 5833 5834 5835 5835 5835 5834 5834 5833 5832 5831 5830 5829 5828 5827 5825 5824 5822 5821 5819 5817 5815 5813 5812 5810 5808 5806 5804 5801 5799 5797 5794 5792 5790 5788 5785 5783 5781 5778
5811 5814 5817 5819 5820 5822 5824 5826 5827 5827 5828 5828 5829 5829 5830 5830 5829 5829 5828 5828 5827 5826 5825 5823 5822 5820 5819 5817 5815 5814 5812 5810 5808 5806 5804 5802 5800 5798 5795 5793 5791 5788 5786 5784 5781 5779 5777 5774 5772
5804 5807 5810 5813 5815 5816 5817 5820 5821 5821 5822 5823 5823 5824 5824 5824 5824 5824 5823 5823 5822 5821 5820 5818 5817 5815 5814 5812 5810 5808 5806 5804 5802 5800 5798 5796 5794 5792 5789 5787 5785 5782 5780 5777 5775 5772 5770 5767 5765
5799 5801 5804 5806 5808 5809 5810 5813 5814 5815 5816 5817 5817 5818 5819 5819 5819 5818 5818 5817 5816 5815 5814 5813 5811 5810 5808 5806 5805 5803 5801 5799 5796 5794 5792 5790 5788 5785 5783 5781 5778 5776 5773 5771 5768 5765 5763 5760 5758
5791 5794 5796 5799 5801 5802 5804 5805 5807 5808 5810 5811 5811 5812 5813 5813 5813 5812 5812 5811 5810 5809 5808 5807 5806 5804 5803 5801 5799 5797 5795 5793 5790 5788 5786 5783 5781 5779 5776 5774 5771 5769 5766 5763 5761 5758 5755 5753 5750
5783 5786 5789 5792 5793 5795 5797 5798 5800 5801 5803 5804 5805 5806 5806 5807 5807 5806 5806 5805 5804 5803 5802 5801 5800 5798 5797 5795 5793 5791 5789 5786 5784 5782 5779 5777 5774 5772 5769 5767 5764 5762 5759 5756 5753 5750 5747 5745 5742
5775 5779 5782 5784 5785 5787 5789 5792 5793 5795 5796 5797 5798 5799 5800 5800 5801 5800 5799 5799 5798 5797 5796 5795 5793 5792 5790 5788 5786 5784 5782 5780 5778 5775 5772 5770 5767 5765 5762 5759 5757 5754 5751 5748 5745 5742 5739 5736 5733
5768 5772 5774 5775 5777 5779 5781 5783 5788 5788 5789 5791 5792 5793 5793 5793 5793 5793 5793 5792 5791 5790 5789 5788 5787 5785 5783 5782 5780 5778 5776 5773 5771 5768 5765 5763 5760 5757 5755 5752 5749 5746 5743 5740 5737 5734 5730 5727 5724
5760 5763 5765 5767 5768 5771 5773 5774 5781 5781 5782 5784 5785 5786 5786 5786 5786 5786 5786 5785 5784 5783 5782 5781 5780 5778 5777 5775 5773 5771 5769 5767 5764 5761 5758 5755 5753 5750 5747 5744 5741 5738 5735 5732 5728 5725 5722 5718 5715
5751 5754 5757 5758 5760 5763 5767 5767 5771 5775 5776 5778 5779 5779 5779 5779 5779 5779 5779 5778 5778 5777 5776 5774 5773 5771 5770 5768 5766 5764 5762 5759 5756 5753 5751 5748 5745 5742 5738 5735 5732 5729 5726 5723 5719 5716 5712 5709 5705
5743 5747 5749 5750 5751 5755 5759 5758 5763 5768 5770 5771 5772 5772 5772 5772 5772 5772 5772 5771 5770 5770 5769 5767 5766 5764 5762 5761 5759 5756 5754 5751 5749 5746 5743 5740 5737 5734 5730 5727 5724 5721 5717 5714 5710 5707 5703 5699 5695
5735 5739 5741 5743 5744 5748 5750 5751 5758 5761 5762 5763 5764 5765 5765 5765 5765 5765 5764 5764 5763 5762 5761 5760 5758 5757 5755 5753 5751 5749 5746 5744 5741 5738 5735 5732 5729 5725 5721 5718 5715 5711 5708 5704 5701 5697 5693 5689 5685
5726 5729 5733 5735 5736 5738 5741 5745 5751 5753 5754 5755 5756 5757 5757 5758 5758 5757 5757 5756 5755 5755 5754 5752 5751 5749 5747 5745 5743 5741 5738 5735 5733 5729 5726 5723 5720 5716 5713 5709 5706 5702 5698 5695 5691 5687 5683 5678 5674
5717 5721 5724 5725 5727 5729 5733 5738 5744 5746 5746 5748 5749 5749 5750 5750 5750 5749 5749 5748 5748 5747 5746 5744 5743 5741 5739 5737 5735 5733 5730 5727 5724 5721 5718 5714 5711 5707 5704 5700 5696 5693 5689 5685 5681 5677 5672 5668 5663
5709 5712 5715 5717 5719 5722 5725 5733 5737 5738 5739 5740 5741 5741 5742 5742 5742 5742 5741 5740 5740 5739 5738 5736 5735 5733 5731 5729 5727 5724 5721 5718 5715 5712 5709 5705 5702 5698 5694 5691 5687 5683 5679 5675 5670 5666 5661 5657 5652
5699 5703 5707 5710 5712 5714 5717 5726 5729 5730 5730 5731 5732 5733 5733 5734 5734 5734 5733 5733 5732 5731 5730 5728 5727 5725 5723 5721 5718 5716 5713 5710 5707 5703 5700 5696 5692 5689 5685 5681 5677 5673 5669 5664 5660 5655 5650 5645 5640